OBJECT P, 57179

Orbit data source: Space-Track

You're viewing an Uncataloged Satellite

Recently launched and/or uncataloged satellites may have evolving metadata. Metadata may include but not limited to: Owner, Maufacturer, Bus, Motor, and Mission.

OBJECT P, 57179 is a satellite in SSO that was launched on Tue, 27 Jun 2023 UTC via a SOYUZ-2-1B launch vehicle from the Vostochny Cosmodrome (VOSTO). Unknown objects in Earth's orbit typically refer to objects detected orbiting the Earth but have not yet been identified or cataloged. These objects could be anything from previously untracked satellites, spent rocket stages, debris from satellite collisions, or even natural meteoroids temporarily captured by Earth's gravity.

Loading next visibility...
Identifier
57179, 2023-091P
Orbit
SSO
Country
Flag of TBDTBD
Related business
None
Manufacturer
Unknown
Mission
Operational Commercial Communications
Bus & Motor
Unknown
Mass
Unknown
Launch date (UTC)
2023-06-27 (2 years ago)
Launch vehicle
SOYUZ-2-1B
Launch site
Vostochny Cosmodrome (VOSTO)
Object type
Unknown
Shape & HBR
Box + 2 Pan, 1.5 m
Radar Cross Section
1.055 m², Small (<0.1 m²)

Expand to show TLE details & history
Last TLE update: 10 hours ago

TLE from 10 hours ago
0 OBJECT P
1 57179U 23091P   25304.88437719  .00006817  00000-0  37764-3 0  9997
2 57179  97.5457 358.0365 0015387 189.7450 170.3485 15.14039613129212
Epoch: 2025-10-31T21:13Z
TLE epoch observation values (Epoch: 2025-10-31T21:13:30.189Z)
Latitude
-0.00004°
Longitude
-0.76169°
Altitude
537.447 km
Speed
7.588 km/s
True Right ascension
23h 52m 08s
True Declination
0° 00' 00"
Sunlit
Object was in full shadow at epoch
Visualization orbit readout
Latitude
Unknown
Longitude
Unknown
Altitude
Unknown
Speed
Unknown
Apparent Right ascension
Unknown
Apparent Declination
Unknown
Sunlit
N/A
Visualization observer readout
Local Sidereal Time
02:40:02
Azimuth
Unknown
Elevation
Unknown
Doppler factor
Unknown
Orbital elements
Apogee altitude
531.491 km
Perigee altitude
510.26 km
Semi-major axis
6,899.013 km
Eccentricity
0.00154
Inclination
97.5457°
RAAN
358.0365°
Arg. of periapsis
189.745°
True anomaly
170.37801°
Mean anomaly
170.3485°
Eccentric anomaly
170.36326°
Mean motion
3.78759 °/min
Orbital period
95.05 mins
BSTAR
0.00037764
Loading maneuver chart data...
Computing Atmospheric mass density...
Loading historical data...
Loading historical data...
Loading historical data...
Loading historical data...
Loading historical data...
Loading historical data...
Loading historical data...

Documentation

Showing up to 5 results
|